"Pseudo-MPEC" for P116kbb

Created 2020 Sep 17 18:07:41 UT using Find_Orb

Click here for an explanation of pseudo-MPECs

 
 Astrometry: 
     P116kbb  C2020 09 16=DD:S7fSkb)_oWVT/X4\qiEn(nPrsoiqm)%*k^kSA*S`0b?DDjgiF51
     P116kbb  C2020 09 16_o7iBe9e6,o;kI`)nmJyoW_Y?XX#AstrometryEaoy+kdDV+%vNVF51
     P116kbb  C2020 09 16%wJ)vsa5SZH1xK0`gY_LJ#K[#V`s,i*efTnredacted;bM/QZjyEF51
     P116kbb KC2020 09 17h$0(EigrnDwOclick-iu9X%$D3L`;\luLkunhereJ+wotgBcdKeKH21
     P116kbb KC2020 09 17;:fordstBraoXQ$xWps%@XV5,uWO8uWG;q1iE.a-#s/.xaeH4DhlH21
     P116kbb KC2020 09 17!WyPh(hd(EexpPgp^(#a!foS(4!YCcZU0CDR-QL$G#E=aMtIO;r\H21
     P116kbb KC2020 09 17C-^9@'T\dbpgiG:GHqm@X@n[I/T,,ajF'K[bAyh]I/p#NtA8-;-hH36
     P116kbb KC2020 09 17?BexplanationK#]oI@KS\F,$*U4d%k8D@36')CoH:lM=OBfHk!yH36
     P116kbb ^C2020 09 17.49074004 12 22.051+04 43 22.60   ~9HI7 20.37GVNEOCP568
     P116kbb ^C2020 09 17.49168804 12 22.128+04 43 22.69   ~9HI7 20.36GVNEOCP568
     P116kbb ^C2020 09 17.49263804 12 22.206+04 43 22.77   ~9HI7 20.35GVNEOCP568

Station data:
(568) Mauna Kea  (N19.826116 W155.472200)  US/Hawaii.
(F51) Pan-STARRS 1, Haleakala  (N20.707235 W156.255910)  US/Hawaii.
   Observers N. Primak, A. Schultz, S. Watters, J. Thiel, T. Goggia. Measurer
   PS1 Science Consortium. 1.8-m Ritchey-Chrétien + CCD.
(H21) Astronomical Research Observatory, Westfield  (N39.483057 W87.968270)
   US/Illinois. 0.76-m f/3.0 astrograph + CCD.
(H36) Sandlot Observatory, Scranton  (N38.797693 W95.706400)  US/Kansas.
   Observer G. Hug. 0.56-m reflector + CCD.

Orbital elements:  P116kbb
   Perihelion 2020 Dec 8.165238 +/- 72.7 TT =  3:57:56 (JD 2459191.665238)
Epoch 2020 Sep 17.0 TT = JDT 2459109.5   Earth MOID: 0.6606   Ma: 0.0964
M 341.51263470 +/- 25               (J2000 ecliptic)          AutoNEOCP
n   0.22500227 +/- 0.12             Peri.  343.88723 +/- 60
a   2.67718334 +/- 1.02             Node    88.20768 +/- 10
e   0.3864997 +/- 0.153             Incl.   11.99457 +/- 2.2
P   4.38                   H 18.0   G  0.15   U 11.3  SR
q 1.64245263 +/- 0.243    Q 3.71191404 +/- 1.95
From 11 observations 2020 Sept. 16-17 (23.3 hr); mean residual 0".28
Residuals in arcseconds: 
200916 F51  .01+  .09+    200917 H21  .15+  .33-    200917 568  .01+  .47+    
200916 F51  .02+  .03+    200917 H21  .21+  .20-    200917 568  .00   .47+    
200916 F51  .07-  .10+    200917 H36  .54-  .37-    200917 568  .01+  .46+    
200917 H21  .28+  .52-    200917 H36  .07-  .21-    

Ephemerides (geocentric):
Date (UTC) HH   RA              Dec         delta   r     elong  mag " sig PA
---- -- -- --  -------------   -----------  ------ ------ -----  --- ---- ---
2020 09 17 18  04 12 43.390   +04 43 47.12  1.1322 1.7729 112.0 20.9 3.88  14
2020 09 17 19  04 12 46.868   +04 43 50.78  1.1318 1.7728 112.0 20.9 4.31  12
2020 09 17 20  04 12 50.344   +04 43 54.43  1.1313 1.7727 112.0 20.9 4.78  11
2020 09 17 21  04 12 53.818   +04 43 58.08  1.1309 1.7726 112.0 20.9 5.27   9
2020 09 17 22  04 12 57.289   +04 44 01.72  1.1305 1.7724 112.1 20.9 5.79   8
2020 09 17 23  04 13 00.759   +04 44 05.36  1.1300 1.7723 112.1 20.9 6.34   7
2020 09 18 00  04 13 04.227   +04 44 09.00  1.1296 1.7722 112.1 20.9 6.91   6
2020 09 18 01  04 13 07.692   +04 44 12.64  1.1292 1.7721 112.1 20.9 7.51   6
2020 09 18 02  04 13 11.156   +04 44 16.27  1.1287 1.7719 112.2 20.9 8.13   5
2020 09 18 03  04 13 14.617   +04 44 19.90  1.1283 1.7718 112.2 20.9 8.78   4
2020 09 18 04  04 13 18.076   +04 44 23.53  1.1279 1.7717 112.2 20.9 9.45   4
2020 09 18 05  04 13 21.533   +04 44 27.15  1.1274 1.7716 112.2 20.9 10.1   3
2020 09 18 06  04 13 24.988   +04 44 30.77  1.1270 1.7714 112.3 20.9 10.9   3
2020 09 18 07  04 13 28.441   +04 44 34.38  1.1266 1.7713 112.3 20.9 11.6   2
2020 09 18 08  04 13 31.892   +04 44 38.00  1.1261 1.7712 112.3 20.9 12.4   2
2020 09 18 09  04 13 35.341   +04 44 41.61  1.1257 1.7711 112.3 20.9 13.2   2
2020 09 18 10  04 13 38.788   +04 44 45.22  1.1253 1.7709 112.4 20.9 14.0   1
2020 09 18 11  04 13 42.233   +04 44 48.82  1.1249 1.7708 112.4 20.9 14.9   1
2020 09 18 12  04 13 45.675   +04 44 52.42  1.1244 1.7707 112.4 20.9 15.7   1
2020 09 18 13  04 13 49.116   +04 44 56.02  1.1240 1.7706 112.4 20.9 16.6   1
2020 09 18 14  04 13 52.554   +04 44 59.61  1.1236 1.7705 112.5 20.9 17.5   1
2020 09 18 15  04 13 55.990   +04 45 03.21  1.1231 1.7703 112.5 20.9 18.5   0
2020 09 18 16  04 13 59.424   +04 45 06.80  1.1227 1.7702 112.5 20.9 19.5   0
2020 09 18 17  04 14 02.857   +04 45 10.38  1.1223 1.7701 112.5 20.9 20.4   0
2020 09 18 18  04 14 06.287   +04 45 13.97  1.1218 1.7700 112.6 20.9 21.5   0
2020 09 18 19  04 14 09.714   +04 45 17.55  1.1214 1.7698 112.6 20.9 22.5   0
2020 09 18 20  04 14 13.140   +04 45 21.12  1.1210 1.7697 112.6 20.9 23.6   0
2020 09 18 21  04 14 16.564   +04 45 24.70  1.1206 1.7696 112.6 20.9 24.7 179
2020 09 18 22  04 14 19.985   +04 45 28.27  1.1201 1.7695 112.7 20.9 25.8 179
2020 09 18 23  04 14 23.405   +04 45 31.84  1.1197 1.7693 112.7 20.9 26.9 179
2020 09 19 00  04 14 26.822   +04 45 35.40  1.1193 1.7692 112.7 20.9 28.1 179
2020 09 19 01  04 14 30.237   +04 45 38.97  1.1188 1.7691 112.7 20.9 29.3 179
2020 09 19 02  04 14 33.650   +04 45 42.53  1.1184 1.7690 112.8 20.9 30.5 179
2020 09 19 03  04 14 37.061   +04 45 46.09  1.1180 1.7689 112.8 20.9 31.7 179
2020 09 19 04  04 14 40.470   +04 45 49.64  1.1176 1.7687 112.8 20.9 33.0 179
2020 09 19 05  04 14 43.876   +04 45 53.19  1.1171 1.7686 112.8 20.9 34.3 179
2020 09 19 06  04 14 47.281   +04 45 56.74  1.1167 1.7685 112.9 20.9 35.6 179
2020 09 19 07  04 14 50.683   +04 46 00.29  1.1163 1.7684 112.9 20.9 36.9 179
2020 09 19 08  04 14 54.083   +04 46 03.83  1.1158 1.7682 112.9 20.8 38.3 178
2020 09 19 09  04 14 57.481   +04 46 07.38  1.1154 1.7681 112.9 20.8 39.7 178
2020 09 19 10  04 15 00.877   +04 46 10.92  1.1150 1.7680 113.0 20.8 41.1 178
2020 09 19 11  04 15 04.271   +04 46 14.45  1.1146 1.7679 113.0 20.8 42.5 178
2020 09 19 12  04 15 07.663   +04 46 17.99  1.1141 1.7677 113.0 20.8 44.0 178
2020 09 19 13  04 15 11.052   +04 46 21.52  1.1137 1.7676 113.0 20.8 45.5 178
2020 09 19 14  04 15 14.439   +04 46 25.04  1.1133 1.7675 113.1 20.8 47.0 178
2020 09 19 15  04 15 17.825   +04 46 28.57  1.1129 1.7674 113.1 20.8 48.5 178
2020 09 19 16  04 15 21.208   +04 46 32.09  1.1124 1.7673 113.1 20.8 50.0 178
2020 09 19 17  04 15 24.589   +04 46 35.62  1.1120 1.7671 113.1 20.8 51.6 178